Covington, KY

9:23 AM EST on December 11, 2019 (GMT -0500)
Cincinnati-Northern KY International

Weather History for KCVG - October, 2019

Change the Weather History Date:

Saturday, October 5, 2019

  Actual Average Record
Temperature  
Mean Temperature 66 °F 60 °F  
Max Temperature 80 °F 70 °F 89 °F (1951)
Min Temperature 51 °F 49 °F 32 °F (1968)
Degree Days  
Heating Degree Days 0 7  
Month to date heating degree days 1 31  
Since 1 July heating degree days 1 89  
Cooling Degree Days 0 1  
Month to date cooling degree days 48 7  
Year to date cooling degree days 1490 1112  
Growing Degree Days 16 (Base 50)    
Moisture  
Dew Point 45 °F    
Average Humidity 53    
Maximum Humidity 74    
Minimum Humidity 30    
Precipitation  
Precipitation T in 0.10 in 2.41 in (1995)
Month to date precipitation T 0.49  
Year to date precipitation 42.42 32.91  
Snow  
Snow 0.00 in 0.00 in 0.00 in ()
Month to date snowfall 0.0 0.0  
Since 1 July snowfall 0.0 0.0  
Since 1 September snowfall 0.0 0.0  
Snow Depth 0.00 in    
Sea Level Pressure  
Sea Level Pressure 30.09 in    
Wind  
Wind Speed 8 mph ()    
Max Wind Speed 20 mph    
Max Gust Speed 24 mph    
Visibility 10.0 miles    
Events      
T = Trace of Precipitation, MM = Missing Value Source: Averaged Metar Reports

Daily Weather History Graph

Daily Weather History Graph

Search for Another Location

Airport or City:

Astronomy

Oct. 05, 2019 Rise Set
Actual Time 7:38 AM EDT 7:15 PM EDT
Civil Twilight 7:11 AM EDT 7:41 PM EDT
Nautical Twilight 6:40 AM EDT 8:12 PM EDT
Astronomical Twilight 6:09 AM EDT 8:43 PM EDT
Moon 3:00 PM EDT (10/5) No Moon Set
Length of Visible Light 12h 30m
Length of Day
11h 37m
Waxing Crescent, 50% of the Moon is Illuminated
Oct 5
Waxing Crescent
Oct 5
First Quarter
Oct 13
Full
Oct 21
Last Quarter
Oct 27
New

Hourly Weather History & Observations

Time (EDT) Temp. Dew Point Humidity Pressure Visibility Wind Dir Wind Speed Gust Speed Precip Events Conditions
12:52 AM 57.9 °F 45.0 °F 62% 30.24 in 10.0 mi ENE 13.8 mph - N/A   Partly Cloudy
1:52 AM 55.0 °F 44.1 °F 67% 30.22 in 10.0 mi East 13.8 mph - N/A   Clear
2:52 AM 55.0 °F 44.1 °F 67% 30.22 in 10.0 mi ENE 17.3 mph - N/A   Clear
3:52 AM 54.0 °F 43.0 °F 66% 30.19 in 10.0 mi East 15.0 mph - N/A   Partly Cloudy
4:52 AM 53.1 °F 43.0 °F 69% 30.18 in 10.0 mi ENE 13.8 mph - N/A   Clear
5:52 AM 52.0 °F 43.0 °F 71% 30.17 in 10.0 mi ENE 13.8 mph - N/A   Partly Cloudy
6:52 AM 51.1 °F 43.0 °F 74% 30.16 in 10.0 mi ENE 10.4 mph - N/A   Scattered Clouds
7:52 AM 51.1 °F 43.0 °F 74% 30.16 in 10.0 mi NE 6.9 mph - N/A   Partly Cloudy
8:52 AM 53.1 °F 43.0 °F 69% 30.16 in 10.0 mi ENE 11.5 mph - N/A   Partly Cloudy
9:52 AM 55.9 °F 44.1 °F 64% 30.16 in 10.0 mi NE 10.4 mph - N/A   Partly Cloudy
10:52 AM 59.0 °F 45.0 °F 60% 30.16 in 10.0 mi NE 5.8 mph - N/A   Partly Cloudy
11:52 AM 63.0 °F 45.0 °F 52% 30.12 in 10.0 mi ENE 4.6 mph - N/A   Partly Cloudy
12:52 PM 68.0 °F 46.0 °F 45% 30.09 in 10.0 mi ENE 6.9 mph - N/A   Scattered Clouds
1:52 PM 72.0 °F 46.0 °F 40% 30.05 in 10.0 mi ESE 6.9 mph - N/A   Scattered Clouds
2:52 PM 75.0 °F 46.0 °F 36% 30.03 in 10.0 mi East 5.8 mph - N/A   Partly Cloudy
3:52 PM 75.9 °F 45.0 °F 33% 30.01 in 10.0 mi Variable 3.5 mph - N/A   Scattered Clouds
4:52 PM 78.1 °F 44.1 °F 30% 30.00 in 10.0 mi Calm Calm - N/A   Partly Cloudy
5:52 PM 78.1 °F 44.1 °F 30% 29.99 in 10.0 mi ESE 4.6 mph - N/A   Partly Cloudy
6:52 PM 75.9 °F 45.0 °F 33% 29.98 in 10.0 mi ESE 3.5 mph - N/A   Partly Cloudy
7:52 PM 72.0 °F 46.0 °F 40% 29.98 in 10.0 mi Calm Calm - N/A   Partly Cloudy
8:52 PM 69.1 °F 46.9 °F 45% 29.98 in 10.0 mi Calm Calm - N/A   Partly Cloudy
9:52 PM 66.0 °F 48.0 °F 52% 29.99 in 10.0 mi Calm Calm - N/A   Partly Cloudy
10:52 PM 64.9 °F 46.9 °F 52% 29.99 in 10.0 mi Calm Calm - N/A   Partly Cloudy
11:52 PM 66.0 °F 48.0 °F 52% 29.98 in 10.0 mi Calm Calm - N/A   Scattered Clouds